Year,Month,Day,Hour,Minute,Value (Times are PST for temperature in C)
2008,06,28,00,00,16.70
2008,06,28,00,01,16.70
2008,06,28,00,02,16.60
2008,06,28,00,03,16.60
2008,06,28,00,04,16.60
2008,06,28,00,05,16.60
2008,06,28,00,06,16.60
2008,06,28,00,07,16.60
2008,06,28,00,08,16.60
2008,06,28,00,09,16.60
2008,06,28,00,10,16.60
2008,06,28,00,11,16.60
2008,06,28,00,12,16.60
2008,06,28,00,13,16.60
2008,06,28,00,14,16.60
2008,06,28,00,15,16.60
2008,06,28,00,16,16.60
2008,06,28,00,17,16.60
2008,06,28,00,18,16.60
2008,06,28,00,19,16.60
2008,06,28,00,20,16.60
2008,06,28,00,21,16.60
2008,06,28,00,22,16.60
2008,06,28,00,23,16.60
2008,06,28,00,24,16.60
2008,06,28,00,25,16.60
2008,06,28,00,26,16.50
2008,06,28,00,27,16.40
2008,06,28,00,28,16.40
2008,06,28,00,29,16.40
2008,06,28,00,30,16.40
2008,06,28,00,31,16.40
2008,06,28,00,32,16.40
2008,06,28,00,33,16.40
2008,06,28,00,34,16.40
2008,06,28,00,35,16.40
2008,06,28,00,36,16.40
2008,06,28,00,37,16.40
2008,06,28,00,38,16.40
2008,06,28,00,39,16.40
2008,06,28,00,40,16.40
2008,06,28,00,41,16.40
2008,06,28,00,42,16.40
2008,06,28,00,43,16.40
2008,06,28,00,44,16.40
2008,06,28,00,45,16.40
2008,06,28,00,46,16.40
2008,06,28,00,47,16.40
2008,06,28,00,48,16.40
2008,06,28,00,49,16.40
2008,06,28,00,50,16.40
2008,06,28,00,51,16.40
2008,06,28,00,52,16.40
2008,06,28,00,53,16.40
2008,06,28,00,54,16.40
2008,06,28,00,55,16.40
2008,06,28,00,56,16.40
2008,06,28,00,57,16.40
2008,06,28,00,58,16.40
2008,06,28,00,59,16.40
2008,06,28,01,00,16.40
2008,06,28,01,01,16.40
2008,06,28,01,02,16.40
2008,06,28,01,03,16.40
2008,06,28,01,04,16.40
2008,06,28,01,05,16.40
2008,06,28,01,06,16.40
2008,06,28,01,07,16.40
2008,06,28,01,08,16.40
2008,06,28,01,09,16.40
2008,06,28,01,10,16.30
2008,06,28,01,11,16.30
2008,06,28,01,12,16.30
2008,06,28,01,13,16.20
2008,06,28,01,14,16.20
2008,06,28,01,15,16.20
2008,06,28,01,16,16.20
2008,06,28,01,17,16.10
2008,06,28,01,18,16.10
2008,06,28,01,19,16.10
2008,06,28,01,20,16.10
2008,06,28,01,21,16.10
2008,06,28,01,22,16.10
2008,06,28,01,23,16.10
2008,06,28,01,24,16.00
2008,06,28,01,25,15.90
2008,06,28,01,26,15.90
2008,06,28,01,27,15.90
2008,06,28,01,28,15.90
2008,06,28,01,29,15.90
2008,06,28,01,30,15.80
2008,06,28,01,31,15.80
2008,06,28,01,32,15.80
2008,06,28,01,33,15.80
2008,06,28,01,34,15.80
2008,06,28,01,35,15.80
2008,06,28,01,36,15.80
2008,06,28,01,37,15.80
2008,06,28,01,38,15.80
2008,06,28,01,39,15.80
2008,06,28,01,40,15.80
2008,06,28,01,41,15.80
2008,06,28,01,42,15.80
2008,06,28,01,43,15.80
2008,06,28,01,44,15.70
2008,06,28,01,45,15.70
2008,06,28,01,46,15.70
2008,06,28,01,47,15.70
2008,06,28,01,48,15.70
2008,06,28,01,49,15.70
2008,06,28,01,50,15.70
2008,06,28,01,51,15.70
2008,06,28,01,52,15.70
2008,06,28,01,53,15.60
2008,06,28,01,54,15.60
2008,06,28,01,55,15.60
2008,06,28,01,56,15.60
2008,06,28,01,57,15.60
2008,06,28,01,58,15.50
2008,06,28,01,59,15.50
2008,06,28,02,00,15.50
2008,06,28,02,01,15.50
2008,06,28,02,02,15.60
2008,06,28,02,03,15.60
2008,06,28,02,04,15.60
2008,06,28,02,05,15.60
2008,06,28,02,06,15.60
2008,06,28,02,07,15.60
2008,06,28,02,08,15.60
2008,06,28,02,09,15.60
2008,06,28,02,10,15.60
2008,06,28,02,11,15.60
2008,06,28,02,12,15.60
2008,06,28,02,13,15.60
2008,06,28,02,14,15.60
2008,06,28,02,15,15.60
2008,06,28,02,16,15.60
2008,06,28,02,17,15.60
2008,06,28,02,18,15.60
2008,06,28,02,19,15.60
2008,06,28,02,20,15.60
2008,06,28,02,21,15.60
2008,06,28,02,22,15.60
2008,06,28,02,23,15.50
2008,06,28,02,24,15.50
2008,06,28,02,25,15.50
2008,06,28,02,26,15.50
2008,06,28,02,27,15.50
2008,06,28,02,28,15.40
2008,06,28,02,29,15.40
2008,06,28,02,30,15.40
2008,06,28,02,31,15.40
2008,06,28,02,32,15.40
2008,06,28,02,33,15.40
2008,06,28,02,34,15.40
2008,06,28,02,35,15.30
2008,06,28,02,36,15.30
2008,06,28,02,37,15.30
2008,06,28,02,38,15.30
2008,06,28,02,39,15.30
2008,06,28,02,40,15.30
2008,06,28,02,41,15.30
2008,06,28,02,42,15.30
2008,06,28,02,43,15.20
2008,06,28,02,44,15.20
2008,06,28,02,45,15.20
2008,06,28,02,46,15.20
2008,06,28,02,47,15.20
2008,06,28,02,48,15.30
2008,06,28,02,49,15.30
2008,06,28,02,50,15.30
2008,06,28,02,51,15.30
2008,06,28,02,52,15.30
2008,06,28,02,53,15.30
2008,06,28,02,54,15.30
2008,06,28,02,55,15.30
2008,06,28,02,56,15.30
2008,06,28,02,57,15.30
2008,06,28,02,58,15.30
2008,06,28,02,59,15.30
2008,06,28,03,00,15.30
2008,06,28,03,01,15.30
2008,06,28,03,02,15.30
2008,06,28,03,03,15.30
2008,06,28,03,04,15.30
2008,06,28,03,05,15.30
2008,06,28,03,06,15.30
2008,06,28,03,07,15.30
2008,06,28,03,08,15.30
2008,06,28,03,09,15.30
2008,06,28,03,10,15.30
2008,06,28,03,11,15.20
2008,06,28,03,12,15.20
2008,06,28,03,13,15.20
2008,06,28,03,14,15.10
2008,06,28,03,15,15.10
2008,06,28,03,16,15.10
2008,06,28,03,17,15.10
2008,06,28,03,18,15.00
2008,06,28,03,19,15.00
2008,06,28,03,20,15.00
2008,06,28,03,21,15.00
2008,06,28,03,22,15.00
2008,06,28,03,23,15.00
2008,06,28,03,24,15.00
2008,06,28,03,25,15.00
2008,06,28,03,26,15.10
2008,06,28,03,27,15.10
2008,06,28,03,28,15.10
2008,06,28,03,29,15.10
2008,06,28,03,30,15.20
2008,06,28,03,31,15.20
2008,06,28,03,32,15.20
2008,06,28,03,33,15.20
2008,06,28,03,34,15.20
2008,06,28,03,35,15.30
2008,06,28,03,36,15.30
2008,06,28,03,37,15.30
2008,06,28,03,38,15.20
2008,06,28,03,39,15.20
2008,06,28,03,40,15.20
2008,06,28,03,41,15.20
2008,06,28,03,42,15.20
2008,06,28,03,43,15.20
2008,06,28,03,44,15.20
2008,06,28,03,45,15.10
2008,06,28,03,46,15.10
2008,06,28,03,47,15.10
2008,06,28,03,48,15.10
2008,06,28,03,49,15.10
2008,06,28,03,50,15.10
2008,06,28,03,51,15.00
2008,06,28,03,52,15.00
2008,06,28,03,53,15.00
2008,06,28,03,54,15.00
2008,06,28,03,55,15.00
2008,06,28,03,56,14.90
2008,06,28,03,57,14.90
2008,06,28,03,58,14.90
2008,06,28,03,59,14.90
2008,06,28,04,00,14.90
2008,06,28,04,01,14.80
2008,06,28,04,02,14.80
2008,06,28,04,03,14.80
2008,06,28,04,04,14.70
2008,06,28,04,05,14.70
2008,06,28,04,06,14.70
2008,06,28,04,07,14.60
2008,06,28,04,08,14.60
2008,06,28,04,09,14.60
2008,06,28,04,10,14.60
2008,06,28,04,11,14.60
2008,06,28,04,12,14.60
2008,06,28,04,13,14.60
2008,06,28,04,14,14.60
2008,06,28,04,15,14.60
2008,06,28,04,16,14.60
2008,06,28,04,17,14.60
2008,06,28,04,18,14.70
2008,06,28,04,19,14.70
2008,06,28,04,20,14.70
2008,06,28,04,21,14.70
2008,06,28,04,22,14.70
2008,06,28,04,23,14.70
2008,06,28,04,24,14.70
2008,06,28,04,25,14.70
2008,06,28,04,26,14.70
2008,06,28,04,27,14.80
2008,06,28,04,28,14.80
2008,06,28,04,29,14.80
2008,06,28,04,30,14.80
2008,06,28,04,31,14.80
2008,06,28,04,32,14.80
2008,06,28,04,33,14.80
2008,06,28,04,34,14.80
2008,06,28,04,35,14.80
2008,06,28,04,36,14.80
2008,06,28,04,37,14.80
2008,06,28,04,38,14.80
2008,06,28,04,39,14.80
2008,06,28,04,40,14.80
2008,06,28,04,41,14.80
2008,06,28,04,42,14.80
2008,06,28,04,43,14.80
2008,06,28,04,44,14.80
2008,06,28,04,45,14.80
2008,06,28,04,46,14.80
2008,06,28,04,47,14.80
2008,06,28,04,48,14.80
2008,06,28,04,49,14.70
2008,06,28,04,50,14.70
2008,06,28,04,51,14.70
2008,06,28,04,52,14.70
2008,06,28,04,53,14.70
2008,06,28,04,54,14.70
2008,06,28,04,55,14.70
2008,06,28,04,56,14.60
2008,06,28,04,57,14.60
2008,06,28,04,58,14.60
2008,06,28,04,59,14.60
2008,06,28,05,00,14.60
2008,06,28,05,01,14.60
2008,06,28,05,02,14.50
2008,06,28,05,03,14.50
2008,06,28,05,04,14.50
2008,06,28,05,05,14.50
2008,06,28,05,06,14.50
2008,06,28,05,07,14.50
2008,06,28,05,08,14.40
2008,06,28,05,09,14.40
2008,06,28,05,10,14.40
2008,06,28,05,11,14.40
2008,06,28,05,12,14.40
2008,06,28,05,13,14.40
2008,06,28,05,14,14.30
2008,06,28,05,15,14.30
2008,06,28,05,16,14.30
2008,06,28,05,17,14.30
2008,06,28,05,18,14.20
2008,06,28,05,19,14.20
2008,06,28,05,20,14.20
2008,06,28,05,21,14.20
2008,06,28,05,22,14.20
2008,06,28,05,23,14.20
2008,06,28,05,24,14.20
2008,06,28,05,25,14.20
2008,06,28,05,26,14.20
2008,06,28,05,27,14.20
2008,06,28,05,28,14.20
2008,06,28,05,29,14.20
2008,06,28,05,30,14.20
2008,06,28,05,31,14.20
2008,06,28,05,32,14.20
2008,06,28,05,33,14.20
2008,06,28,05,34,14.20
2008,06,28,05,35,14.20
2008,06,28,05,36,14.20
2008,06,28,05,37,14.20
2008,06,28,05,38,14.20
2008,06,28,05,39,14.30
2008,06,28,05,40,14.30
2008,06,28,05,41,14.30
2008,06,28,05,42,14.30
2008,06,28,05,43,14.30
2008,06,28,05,44,14.40
2008,06,28,05,45,14.40
2008,06,28,05,46,14.40
2008,06,28,05,47,14.40
2008,06,28,05,48,14.40
2008,06,28,05,49,14.40
2008,06,28,05,50,14.40
2008,06,28,05,51,14.40
2008,06,28,05,52,14.50
2008,06,28,05,53,14.50
2008,06,28,05,54,14.50
2008,06,28,05,55,14.50
2008,06,28,05,56,14.60
2008,06,28,05,57,14.60
2008,06,28,05,58,14.60
2008,06,28,05,59,14.60
2008,06,28,06,00,14.60
2008,06,28,06,01,14.60
2008,06,28,06,02,14.70
2008,06,28,06,03,14.70
2008,06,28,06,04,14.70
2008,06,28,06,05,14.70
2008,06,28,06,06,14.70
2008,06,28,06,07,14.80
2008,06,28,06,08,14.80
2008,06,28,06,09,14.80
2008,06,28,06,10,14.80
2008,06,28,06,11,14.80
2008,06,28,06,12,14.80
2008,06,28,06,13,14.80
2008,06,28,06,14,14.80
2008,06,28,06,15,14.80
2008,06,28,06,16,14.90
2008,06,28,06,17,14.90
2008,06,28,06,18,14.90
2008,06,28,06,19,14.90
2008,06,28,06,20,15.00
2008,06,28,06,21,15.00
2008,06,28,06,22,15.10
2008,06,28,06,23,15.10
2008,06,28,06,24,15.10
2008,06,28,06,25,15.10
2008,06,28,06,26,15.20
2008,06,28,06,27,15.20
2008,06,28,06,28,15.20
2008,06,28,06,29,15.30
2008,06,28,06,30,15.30
2008,06,28,06,31,15.30
2008,06,28,06,32,15.40
2008,06,28,06,33,15.40
2008,06,28,06,34,15.50
2008,06,28,06,35,15.50
2008,06,28,06,36,15.60
2008,06,28,06,37,15.70
2008,06,28,06,38,15.70
2008,06,28,06,39,15.80
2008,06,28,06,40,15.90
2008,06,28,06,41,16.00
2008,06,28,06,42,16.10
2008,06,28,06,43,16.20
2008,06,28,06,44,16.20
2008,06,28,06,45,16.30
2008,06,28,06,46,16.40
2008,06,28,06,47,16.40
2008,06,28,06,48,16.50
2008,06,28,06,49,16.60
2008,06,28,06,50,16.70
2008,06,28,06,51,16.70
2008,06,28,06,52,16.70
2008,06,28,06,53,16.80
2008,06,28,06,54,16.90
2008,06,28,06,55,16.90
2008,06,28,06,56,17.00
2008,06,28,06,57,17.10
2008,06,28,06,58,17.20
2008,06,28,06,59,17.30
2008,06,28,07,00,17.40
2008,06,28,07,01,17.50
2008,06,28,07,02,17.60
2008,06,28,07,03,17.60
2008,06,28,07,04,17.70
2008,06,28,07,05,17.80
2008,06,28,07,06,17.90
2008,06,28,07,07,17.90
2008,06,28,07,08,18.00
2008,06,28,07,09,18.10
2008,06,28,07,10,18.10
2008,06,28,07,11,18.20
2008,06,28,07,12,18.20
2008,06,28,07,13,18.20
2008,06,28,07,14,18.30
2008,06,28,07,15,18.30
2008,06,28,07,16,18.40
2008,06,28,07,17,18.40
2008,06,28,07,18,18.50
2008,06,28,07,19,18.60
2008,06,28,07,20,18.70
2008,06,28,07,21,18.70
2008,06,28,07,22,18.80
2008,06,28,07,23,18.90
2008,06,28,07,24,19.00
2008,06,28,07,25,19.10
2008,06,28,07,26,19.10
2008,06,28,07,27,19.10
2008,06,28,07,28,19.20
2008,06,28,07,29,19.30
2008,06,28,07,30,19.30
2008,06,28,07,31,19.40
2008,06,28,07,32,19.40
2008,06,28,07,33,19.50
2008,06,28,07,34,19.60
2008,06,28,07,35,19.70
2008,06,28,07,36,19.70
2008,06,28,07,37,19.80
2008,06,28,07,38,19.80
2008,06,28,07,39,19.90
2008,06,28,07,40,19.90
2008,06,28,07,41,19.90
2008,06,28,07,42,19.90
2008,06,28,07,43,19.90
2008,06,28,07,44,19.90
2008,06,28,07,45,20.00
2008,06,28,07,46,20.10
2008,06,28,07,47,20.10
2008,06,28,07,48,20.20
2008,06,28,07,49,20.20
2008,06,28,07,50,20.30
2008,06,28,07,51,20.30
2008,06,28,07,52,20.40
2008,06,28,07,53,20.50
2008,06,28,07,54,20.60
2008,06,28,07,55,20.60
2008,06,28,07,56,20.60
2008,06,28,07,57,20.60
2008,06,28,07,58,20.70
2008,06,28,07,59,20.70
2008,06,28,08,00,20.80
2008,06,28,08,01,20.80
2008,06,28,08,02,20.90
2008,06,28,08,03,20.90
2008,06,28,08,04,20.90
2008,06,28,08,05,20.90
2008,06,28,08,06,20.90
2008,06,28,08,07,21.00
2008,06,28,08,08,21.00
2008,06,28,08,09,21.10
2008,06,28,08,10,21.10
2008,06,28,08,11,21.20
2008,06,28,08,12,21.30
2008,06,28,08,13,21.30
2008,06,28,08,14,21.40
2008,06,28,08,15,21.40
2008,06,28,08,16,21.40
2008,06,28,08,17,21.40
2008,06,28,08,18,21.50
2008,06,28,08,19,21.60
2008,06,28,08,20,21.60
2008,06,28,08,21,21.70
2008,06,28,08,22,21.70
2008,06,28,08,23,21.80
2008,06,28,08,24,21.90
2008,06,28,08,25,21.90
2008,06,28,08,26,21.90
2008,06,28,08,27,22.00
2008,06,28,08,28,22.00
2008,06,28,08,29,21.80
2008,06,28,08,30,21.00
2008,06,28,08,31,20.20
2008,06,28,08,32,19.60
2008,06,28,08,33,19.00
2008,06,28,08,34,18.60
2008,06,28,08,35,18.30
2008,06,28,08,36,17.90
2008,06,28,08,37,17.70
2008,06,28,08,38,17.50
2008,06,28,08,39,17.40
2008,06,28,08,40,17.40
2008,06,28,08,41,17.50
2008,06,28,08,42,17.50
2008,06,28,08,43,17.60
2008,06,28,08,44,17.70
2008,06,28,08,45,17.80
2008,06,28,08,46,18.00
2008,06,28,08,47,18.20
2008,06,28,08,48,18.40
2008,06,28,08,49,18.60
2008,06,28,08,50,18.70
2008,06,28,08,51,18.90
2008,06,28,08,52,19.10
2008,06,28,08,53,19.30
2008,06,28,08,54,19.40
2008,06,28,08,55,19.60
2008,06,28,08,56,19.90
2008,06,28,08,57,20.10
2008,06,28,08,58,20.40
2008,06,28,08,59,20.60
2008,06,28,09,00,20.90
2008,06,28,09,01,21.10
2008,06,28,09,02,21.30
2008,06,28,09,03,21.50
2008,06,28,09,04,21.70
2008,06,28,09,05,21.90
2008,06,28,09,06,22.00
2008,06,28,09,07,22.10
2008,06,28,09,08,22.20
2008,06,28,09,09,22.30
2008,06,28,09,10,22.30
2008,06,28,09,11,22.40
2008,06,28,09,12,22.40
2008,06,28,09,13,22.50
2008,06,28,09,14,22.50
2008,06,28,09,15,22.50
2008,06,28,09,16,22.50
2008,06,28,09,17,22.40
2008,06,28,09,18,22.50
2008,06,28,09,19,22.50
2008,06,28,09,20,22.50
2008,06,28,09,21,22.40
2008,06,28,09,22,22.40
2008,06,28,09,23,22.40
2008,06,28,09,24,22.40
2008,06,28,09,25,22.50
2008,06,28,09,26,22.50
2008,06,28,09,27,22.60
2008,06,28,09,28,22.60
2008,06,28,09,29,22.80
2008,06,28,09,30,22.90
2008,06,28,09,31,22.90
2008,06,28,09,32,22.90
2008,06,28,09,33,22.90
2008,06,28,09,34,22.90
2008,06,28,09,35,22.90
2008,06,28,09,36,22.90
2008,06,28,09,37,22.90
2008,06,28,09,38,22.90
2008,06,28,09,39,22.90
2008,06,28,09,40,22.90
2008,06,28,09,41,22.90
2008,06,28,09,42,23.00
2008,06,28,09,43,23.10
2008,06,28,09,44,23.10
2008,06,28,09,45,23.20
2008,06,28,09,46,23.30
2008,06,28,09,47,23.30
2008,06,28,09,48,23.30
2008,06,28,09,49,23.30
2008,06,28,09,50,23.30
2008,06,28,09,51,23.30
2008,06,28,09,52,23.40
2008,06,28,09,53,23.40
2008,06,28,09,54,23.50
2008,06,28,09,55,23.60
2008,06,28,09,56,23.70
2008,06,28,09,57,23.70
2008,06,28,09,58,23.70
2008,06,28,09,59,23.90
2008,06,28,10,00,24.00
2008,06,28,10,01,24.10
2008,06,28,10,02,24.20
2008,06,28,10,03,24.30
2008,06,28,10,04,24.40
2008,06,28,10,05,24.40
2008,06,28,10,06,24.30
2008,06,28,10,07,24.30
2008,06,28,10,08,24.20
2008,06,28,10,09,24.20
2008,06,28,10,10,24.20
2008,06,28,10,11,24.20
2008,06,28,10,12,24.20
2008,06,28,10,13,24.10
2008,06,28,10,14,24.10
2008,06,28,10,15,24.10
2008,06,28,10,16,24.00
2008,06,28,10,17,23.90
2008,06,28,10,18,24.00
2008,06,28,10,19,24.10
2008,06,28,10,20,24.10
2008,06,28,10,21,24.10
2008,06,28,10,22,24.10
2008,06,28,10,23,24.20
2008,06,28,10,24,24.30
2008,06,28,10,25,24.30
2008,06,28,10,26,24.30
2008,06,28,10,27,24.30
2008,06,28,10,28,24.30
2008,06,28,10,29,24.10
2008,06,28,10,30,24.00
2008,06,28,10,31,23.80
2008,06,28,10,32,23.10
2008,06,28,10,33,22.20
2008,06,28,10,34,21.40
2008,06,28,10,35,20.80
2008,06,28,10,36,20.40
2008,06,28,10,37,20.20
2008,06,28,10,38,20.20
2008,06,28,10,39,20.20
2008,06,28,10,40,20.20
2008,06,28,10,41,20.30
2008,06,28,10,42,20.50
2008,06,28,10,43,20.70
2008,06,28,10,44,20.80
2008,06,28,10,45,20.90
2008,06,28,10,46,21.10
2008,06,28,10,47,21.30
2008,06,28,10,48,21.30
2008,06,28,10,49,21.20
2008,06,28,10,50,21.30
2008,06,28,10,51,21.30
2008,06,28,10,52,21.40
2008,06,28,10,53,21.50
2008,06,28,10,54,21.60
2008,06,28,10,55,21.60
2008,06,28,10,56,21.70
2008,06,28,10,57,21.90
2008,06,28,10,58,22.00
2008,06,28,10,59,22.10
2008,06,28,11,00,22.20
2008,06,28,11,01,22.30
2008,06,28,11,02,22.40
2008,06,28,11,03,22.60
2008,06,28,11,04,22.70
2008,06,28,11,05,22.70
2008,06,28,11,06,22.80
2008,06,28,11,07,22.80
2008,06,28,11,08,22.80
2008,06,28,11,09,22.80
2008,06,28,11,10,22.90
2008,06,28,11,11,22.90
2008,06,28,11,12,22.90
2008,06,28,11,13,23.00
2008,06,28,11,14,23.20
2008,06,28,11,15,23.30
2008,06,28,11,16,23.40
2008,06,28,11,17,23.60
2008,06,28,11,18,23.70
2008,06,28,11,19,23.90
2008,06,28,11,20,24.00
2008,06,28,11,21,24.20
2008,06,28,11,22,24.30
2008,06,28,11,23,24.50
2008,06,28,11,24,24.70
2008,06,28,11,25,24.80
2008,06,28,11,26,24.70
2008,06,28,11,27,24.60
2008,06,28,11,28,24.40
2008,06,28,11,29,24.30
2008,06,28,11,30,24.30
2008,06,28,11,31,24.30
2008,06,28,11,32,24.40
2008,06,28,11,33,24.40
2008,06,28,11,34,24.40
2008,06,28,11,35,24.40
2008,06,28,11,36,24.40
2008,06,28,11,37,24.30
2008,06,28,11,38,24.30
2008,06,28,11,39,24.30
2008,06,28,11,40,24.30
2008,06,28,11,41,24.30
2008,06,28,11,42,24.20
2008,06,28,11,43,24.30
2008,06,28,11,44,24.40
2008,06,28,11,45,24.50
2008,06,28,11,46,24.50
2008,06,28,11,47,24.60
2008,06,28,11,48,24.60
2008,06,28,11,49,24.60
2008,06,28,11,50,24.70
2008,06,28,11,51,24.90
2008,06,28,11,52,25.00
2008,06,28,11,53,25.10
2008,06,28,11,54,25.20
2008,06,28,11,55,25.30
2008,06,28,11,56,25.40
2008,06,28,11,57,25.50
2008,06,28,11,58,25.60
2008,06,28,11,59,25.80
2008,06,28,12,00,25.90
2008,06,28,12,01,25.90
2008,06,28,12,02,25.90
2008,06,28,12,03,25.80
2008,06,28,12,04,25.80
2008,06,28,12,05,25.70
2008,06,28,12,06,25.70
2008,06,28,12,07,25.60
2008,06,28,12,08,25.60
2008,06,28,12,09,25.70
2008,06,28,12,10,25.80
2008,06,28,12,11,25.90
2008,06,28,12,12,25.90
2008,06,28,12,13,25.80
2008,06,28,12,14,25.70
2008,06,28,12,15,25.80
2008,06,28,12,16,25.80
2008,06,28,12,17,25.80
2008,06,28,12,18,25.70
2008,06,28,12,19,25.80
2008,06,28,12,20,25.80
2008,06,28,12,21,25.90
2008,06,28,12,22,26.00
2008,06,28,12,23,26.10
2008,06,28,12,24,26.20
2008,06,28,12,25,26.20
2008,06,28,12,26,26.20
2008,06,28,12,27,26.20
2008,06,28,12,28,26.10
2008,06,28,12,29,26.10
2008,06,28,12,30,26.10
2008,06,28,12,31,26.10
2008,06,28,12,32,26.20
2008,06,28,12,33,26.40
2008,06,28,12,34,26.50
2008,06,28,12,35,26.60
2008,06,28,12,36,26.60
2008,06,28,12,37,26.50
2008,06,28,12,38,26.40
2008,06,28,12,39,26.40
2008,06,28,12,40,26.40
2008,06,28,12,41,26.50
2008,06,28,12,42,26.60
2008,06,28,12,43,26.60
2008,06,28,12,44,26.70
2008,06,28,12,45,26.80
2008,06,28,12,46,26.80
2008,06,28,12,47,26.70
2008,06,28,12,48,26.70
2008,06,28,12,49,26.60
2008,06,28,12,50,26.70
2008,06,28,12,51,26.80
2008,06,28,12,52,26.80
2008,06,28,12,53,26.80
2008,06,28,12,54,26.90
2008,06,28,12,55,26.90
2008,06,28,12,56,26.90
2008,06,28,12,57,26.90
2008,06,28,12,58,26.90
2008,06,28,12,59,26.80
2008,06,28,13,00,26.90
2008,06,28,13,01,26.90
2008,06,28,13,02,26.90
2008,06,28,13,03,26.80
2008,06,28,13,04,26.80
2008,06,28,13,05,26.80
2008,06,28,13,06,26.80
2008,06,28,13,07,26.70
2008,06,28,13,08,26.70
2008,06,28,13,09,26.70
2008,06,28,13,10,26.60
2008,06,28,13,11,26.40
2008,06,28,13,12,26.40
2008,06,28,13,13,26.50
2008,06,28,13,14,26.60
2008,06,28,13,15,26.60
2008,06,28,13,16,26.60
2008,06,28,13,17,26.60
2008,06,28,13,18,26.60
2008,06,28,13,19,26.60
2008,06,28,13,20,26.70
2008,06,28,13,21,26.70
2008,06,28,13,22,26.80
2008,06,28,13,23,27.00
2008,06,28,13,24,27.10
2008,06,28,13,25,27.30
2008,06,28,13,26,27.30
2008,06,28,13,27,27.40
2008,06,28,13,28,27.60
2008,06,28,13,29,27.70
2008,06,28,13,30,27.70
2008,06,28,13,31,27.50
2008,06,28,13,32,27.40
2008,06,28,13,33,27.30
2008,06,28,13,34,27.30
2008,06,28,13,35,27.30
2008,06,28,13,36,27.30
2008,06,28,13,37,27.30
2008,06,28,13,38,27.10
2008,06,28,13,39,27.10
2008,06,28,13,40,27.10
2008,06,28,13,41,27.20
2008,06,28,13,42,27.30
2008,06,28,13,43,27.30
2008,06,28,13,44,27.30
2008,06,28,13,45,27.30
2008,06,28,13,46,27.40
2008,06,28,13,47,27.40
2008,06,28,13,48,27.40
2008,06,28,13,49,27.60
2008,06,28,13,50,27.40
2008,06,28,13,51,27.30
2008,06,28,13,52,27.20
2008,06,28,13,53,27.10
2008,06,28,13,54,27.10
2008,06,28,13,55,27.10
2008,06,28,13,56,27.20
2008,06,28,13,57,27.30
2008,06,28,13,58,27.30
2008,06,28,13,59,27.30
2008,06,28,14,00,27.30
2008,06,28,14,01,27.20
2008,06,28,14,02,27.20
2008,06,28,14,03,27.20
2008,06,28,14,04,27.30
2008,06,28,14,05,27.30
2008,06,28,14,06,27.30
2008,06,28,14,07,27.30
2008,06,28,14,08,27.30
2008,06,28,14,09,27.40
2008,06,28,14,10,27.50
2008,06,28,14,11,27.60
2008,06,28,14,12,27.60
2008,06,28,14,13,27.60
2008,06,28,14,14,27.60
2008,06,28,14,15,27.50
2008,06,28,14,16,27.40
2008,06,28,14,17,27.40
2008,06,28,14,18,27.40
2008,06,28,14,19,27.40
2008,06,28,14,20,27.60
2008,06,28,14,21,27.60
2008,06,28,14,22,27.70
2008,06,28,14,23,27.80
2008,06,28,14,24,27.70
2008,06,28,14,25,27.60
2008,06,28,14,26,27.50
2008,06,28,14,27,27.40
2008,06,28,14,28,27.40
2008,06,28,14,29,27.50
2008,06,28,14,30,27.60
2008,06,28,14,31,27.80
2008,06,28,14,32,27.80
2008,06,28,14,33,27.80
2008,06,28,14,34,27.80
2008,06,28,14,35,27.80
2008,06,28,14,36,27.90
2008,06,28,14,37,27.80
2008,06,28,14,38,27.90
2008,06,28,14,39,28.00
2008,06,28,14,40,28.10
2008,06,28,14,41,28.10
2008,06,28,14,42,28.10
2008,06,28,14,43,28.10
2008,06,28,14,44,28.00
2008,06,28,14,45,28.00
2008,06,28,14,46,27.90
2008,06,28,14,47,27.90
2008,06,28,14,48,28.00
2008,06,28,14,49,28.10
2008,06,28,14,50,28.20
2008,06,28,14,51,28.20
2008,06,28,14,52,28.20
2008,06,28,14,53,28.30
2008,06,28,14,54,28.20
2008,06,28,14,55,28.10
2008,06,28,14,56,28.10
2008,06,28,14,57,28.00
2008,06,28,14,58,27.90
2008,06,28,14,59,27.90
2008,06,28,15,00,28.00
2008,06,28,15,01,28.00
2008,06,28,15,02,28.10
2008,06,28,15,03,28.20
2008,06,28,15,04,28.30
2008,06,28,15,05,28.30
2008,06,28,15,06,28.30
2008,06,28,15,07,28.30
2008,06,28,15,08,28.30
2008,06,28,15,09,28.30
2008,06,28,15,10,28.30
2008,06,28,15,11,28.40
2008,06,28,15,12,28.30
2008,06,28,15,13,28.00
2008,06,28,15,14,27.70
2008,06,28,15,15,27.50
2008,06,28,15,16,27.30
2008,06,28,15,17,26.90
2008,06,28,15,18,26.50
2008,06,28,15,19,26.20
2008,06,28,15,20,25.90
2008,06,28,15,21,25.70
2008,06,28,15,22,25.40
2008,06,28,15,23,25.30
2008,06,28,15,24,25.20
2008,06,28,15,25,25.10
2008,06,28,15,26,25.00
2008,06,28,15,27,24.90
2008,06,28,15,28,24.90
2008,06,28,15,29,24.80
2008,06,28,15,30,24.70
2008,06,28,15,31,24.50
2008,06,28,15,32,24.50
2008,06,28,15,33,24.40
2008,06,28,15,34,24.20
2008,06,28,15,35,24.20
2008,06,28,15,36,24.10
2008,06,28,15,37,24.10
2008,06,28,15,38,24.10
2008,06,28,15,39,24.10
2008,06,28,15,40,24.00
2008,06,28,15,41,23.90
2008,06,28,15,42,23.80
2008,06,28,15,43,23.70
2008,06,28,15,44,23.70
2008,06,28,15,45,23.70
2008,06,28,15,46,23.70
2008,06,28,15,47,23.70
2008,06,28,15,48,23.60
2008,06,28,15,49,23.60
2008,06,28,15,50,23.60
2008,06,28,15,51,23.60
2008,06,28,15,52,23.60
2008,06,28,15,53,23.60
2008,06,28,15,54,23.70
2008,06,28,15,55,23.70
2008,06,28,15,56,23.70
2008,06,28,15,57,23.60
2008,06,28,15,58,23.60
2008,06,28,15,59,23.50
2008,06,28,16,00,23.40
2008,06,28,16,01,23.40
2008,06,28,16,02,23.50
2008,06,28,16,03,23.40
2008,06,28,16,04,23.30
2008,06,28,16,05,23.30
2008,06,28,16,06,23.20
2008,06,28,16,07,23.10
2008,06,28,16,08,23.00
2008,06,28,16,09,22.90
2008,06,28,16,10,22.90
2008,06,28,16,11,22.80
2008,06,28,16,12,22.80
2008,06,28,16,13,22.80
2008,06,28,16,14,22.70
2008,06,28,16,15,22.60
2008,06,28,16,16,22.50
2008,06,28,16,17,22.40
2008,06,28,16,18,22.30
2008,06,28,16,19,22.30
2008,06,28,16,20,22.30
2008,06,28,16,21,22.20
2008,06,28,16,22,22.10
2008,06,28,16,23,22.00
2008,06,28,16,24,22.00
2008,06,28,16,25,22.00
2008,06,28,16,26,21.90
2008,06,28,16,27,21.80
2008,06,28,16,28,21.70
2008,06,28,16,29,21.70
2008,06,28,16,30,21.60
2008,06,28,16,31,21.60
2008,06,28,16,32,21.70
2008,06,28,16,33,21.80
2008,06,28,16,34,21.90
2008,06,28,16,35,22.00
2008,06,28,16,36,22.00
2008,06,28,16,37,22.00
2008,06,28,16,38,22.00
2008,06,28,16,39,22.10
2008,06,28,16,40,22.10
2008,06,28,16,41,22.20
2008,06,28,16,42,22.20
2008,06,28,16,43,22.30
2008,06,28,16,44,22.40
2008,06,28,16,45,22.40
2008,06,28,16,46,22.30
2008,06,28,16,47,22.30
2008,06,28,16,48,22.20
2008,06,28,16,49,22.20
2008,06,28,16,50,22.10
2008,06,28,16,51,22.10
2008,06,28,16,52,22.10
2008,06,28,16,53,22.10
2008,06,28,16,54,22.10
2008,06,28,16,55,22.20
2008,06,28,16,56,22.20
2008,06,28,16,57,22.20
2008,06,28,16,58,22.20
2008,06,28,16,59,22.10
2008,06,28,17,00,22.10
2008,06,28,17,01,22.10
2008,06,28,17,02,22.10
2008,06,28,17,03,22.10
2008,06,28,17,04,22.10
2008,06,28,17,05,22.00
2008,06,28,17,06,22.00
2008,06,28,17,07,21.90
2008,06,28,17,08,21.80
2008,06,28,17,09,21.60
2008,06,28,17,10,21.60
2008,06,28,17,11,21.60
2008,06,28,17,12,21.60
2008,06,28,17,13,21.60
2008,06,28,17,14,21.60
2008,06,28,17,15,21.60
2008,06,28,17,16,21.60
2008,06,28,17,17,21.60
2008,06,28,17,18,21.50
2008,06,28,17,19,21.40